Regional Weather Roundup
Issued by NWS

Home | Current Version | Previous Version | Graphics & Text | Print | Product List | Glossary Off
Versions: 1 2 3 4 5 6 7 8 9 10 11 12 13 14 15 16 17 18 19 20 21 22 23 24 25 26 27 28 29 30 31 32 33 34 35 36 37 38 39 40 41 42 43 44 45 46 47 48 49 50

000
ASUS43 KMKX 262000
RWRWI

WISCONSIN REGIONAL WEATHER ROUNDUP
NATIONAL WEATHER SERVICE MILWAUKEE/SULLIVAN WI
300 PM CDT TUE JUL 26 2016

NOTE: "FAIR" INDICATES FEW OR NO CLOUDS BELOW 12,000 FEET WITH NO
SIGNIFICANT WEATHER AND/OR OBSTRUCTIONS TO VISIBILITY.

WIZ001-002-006>008-014>016-023>028-262100-
NORTHWEST WISCONSIN

CITY           SKY/WX    TMP DP  RH WIND       PRES   REMARKS
SUPERIOR ARPT  CLOUDY    85  69  59 W8        29.94F HX  88
ASHLAND        CLOUDY    86  68  54 W13       29.94S HX  89
HAYWARD        MOSUNNY   85  67  54 SW10G18   29.98S HX  87
SIREN          SUNNY     86  66  51 W14       29.97F HX  88
CUMBERLAND     SUNNY     84  63  48 SW13      29.99F HX  85
RICE LAKE      SUNNY     85  65  51 SW12      30.00F HX  87
CHETEK         SUNNY     88  66  49 SW10G18   29.99F HX  90
LADYSMITH      SUNNY     87  67  52 SW14      30.01F HX  89
EAU CLAIRE     NOT AVBL
MENOMONIE      SUNNY     90  64  42 SW12      30.01F HX  91
NEW RICHMOND   SUNNY     88  60  38 SW16      29.99F HX  87
OSCEOLA        SUNNY     89  62  40 SW12      30.00F HX  89
$$

WIZ003>005-009-010-017-018-262100-
NORTH CENTRAL WISCONSIN

CITY           SKY/WX    TMP DP  RH WIND       PRES   REMARKS
MANITOWISH WTR MOSUNNY   85  64  48 SW16G23   29.97F HX  86
ARBOR VITAE    SUNNY     85  62  46 SW7G17    29.99F HX  85
WOODRUFF       SUNNY     85  62  46 SW7G17    29.99F HX  85
RHINELANDER    SUNNY     88  61  40 W15G24    30.00F HX  88
EAGLE RIVER    SUNNY     85  57  38 W16G22    29.98F HX  84
LAND O LAKES   MOSUNNY   85  60  42 W6        29.99F HX  84
PHILLIPS       SUNNY     85  65  49 SW13G22   29.99F HX  87
TOMAHAWK       SUNNY     87  63  44 W7        30.01F HX  87
MEDFORD        SUNNY     83  66  56 SW13      30.03F HX  85
MERRILL        SUNNY     87  64  46 W13G21    30.02F HX  88
$$

WIZ029-030-035-036-043>047-262100-
CENTRAL WISCONSIN

CITY           SKY/WX    TMP DP  RH WIND       PRES   REMARKS
WAUSAU         SUNNY     86  62  44 W9G21     30.01F HX  86
MOSINEE        NOT AVBL
MARSHFIELD     SUNNY     86  65  49 W12       30.03F HX  88
STEVENS POINT  SUNNY     85  63  48 W9        30.03F HX  85
WAUPACA        MOSUNNY   88  64  43 SW9       30.02F HX  89
WAUTOMA        PTSUNNY   87  66  49 SW9       30.03F HX  89
WISC RAPIDS    MOSUNNY   87  62  43 W9        30.04F HX  87
CAMP DOUGLAS   NOT AVBL
$$

WIZ011>013-019>022-031-037>040-048>050-262100-
NORTHEAST WISCONSIN

CITY           SKY/WX    TMP DP  RH WIND       PRES   REMARKS
ANTIGO         SUNNY     84  65  53 W12G18    30.03F HX  86
SHAWANO        MOSUNNY   89  66  46 SW9G17    30.00F HX  91
OCONTO         MOSUNNY   87  69  55 W12       29.98F HX  91
STURGEON BAY   SUNNY     86  67  52 SW10      29.99F HX  89
GREEN BAY      MOSUNNY   85  69  58 SW12      30.01F HX  89
MANITOWOC      NOT AVBL
APPLETON       MOSUNNY   84  61  45 SW10      30.01F HX  84
CLINTONVILLE   MOSUNNY   88  63  42 SW9       30.01F HX  88
OSHKOSH        SUNNY     85  63  47 SW6       30.02F HX  86
$$

WIZ032>034-041-042-053>061-262100-
SOUTHWEST WISCONSIN

CITY           SKY/WX    TMP DP  RH WIND       PRES   REMARKS
LA CROSSE      SUNNY     88  67  49 S7        30.03F HX  91
SPARTA         MOSUNNY   86  63  46 NW6       30.05F HX  87
VIROQUA        MOSUNNY   82  64  54 CALM      30.08S HX  83
BOSCOBEL       SUNNY     88  63  43 CALM      30.04F HX  89
PRAIRIE DU CHI SUNNY     84  59  42 CALM      30.04F HX  84
PLATTEVILLE    MOSUNNY   83  66  56 S5        30.07F HX  85
$$

WIZ056-057-062-063-064-067-068-262100-
SOUTH CENTRAL WISCONSIN

CITY           SKY/WX    TMP DP  RH WIND       PRES   REMARKS
REEDSBURG      PTSUNNY   84  67  55 W8        30.05F HX  87
BARABOO/DELLS  MOSUNNY   84  62  47 CALM      30.06F HX  84
LONE ROCK      NOT AVBL
MINERAL POINT  MOSUNNY   84  61  45 N3        30.07F HX  84
MADISON        MOSUNNY   86  60  41 N6        30.04F HX  86
MIDDLETON      SUNNY     86  62  45 N5        30.06F HX  86
WATERTOWN      SUNNY     84  65  52 W9        30.04F HX  85
MONROE         PTSUNNY   82  61  47 CALM      30.07S HX  83
JANESVILLE     MOSUNNY   86  63  45 CALM      30.04F HX  87
$$

WIZ051-052-058>065-066-070>072-262100-
SOUTHEAST WISCONSIN

CITY           SKY/WX    TMP DP  RH WIND       PRES   REMARKS
MILWAUKEE      MOSUNNY   85  60  42 SE10      30.03F HX  85
WAUKESHA       MOSUNNY   84  59  42 NW5       30.05F HX  84
MILWAUKEE/TIMM SUNNY     86  52  30 SE5       30.04S HX  84
RACINE         SUNNY     84  63  49 SE8       30.05F HX  85
BURLINGTON     SUNNY     86  60  42 NW5       30.04F HX  86
KENOSHA        SUNNY     85  62  46 E7        30.04F HX  85
FOND DU LAC    SUNNY     86  64  47 SW8       30.03F HX  87
SHEBOYGAN      PTSUNNY   84  64  50 E3        30.02F HX  85
WEST BEND      MOSUNNY   86  55  35 W6        30.04F HX  84
JUNEAU         SUNNY     82  64  53 W5        30.06F HX  83
$$

LSZ147-162-262100-
LAKE SUPERIOR

STATION/POSITION TIME  TEMP    WIND        PRES    WAVE
                       AIR SEA DIR/SP/G            HT/PER
                 (UTC) (F)     (DEG/KT/KT) (MB)    (FT/S)
W MID LAKE BUOY  1850   65 62  110/  2/  2 1012.8F   1
DEVILS ISLAND    1900   73     240/ 15/ 17 1013.1R
SAXON HARBOR     1900   86     230/  4/ 12 1013.2
$$

LMZ867-665-643>646-262100-
LAKE MICHIGAN

STATION/POSITION TIME  TEMP    WIND        PRES    WAVE
                       AIR SEA DIR/SP/G            HT/PER
                 (UTC) (F)     (DEG/KT/KT) (MB)    (FT/S)
CHAMBERS ISLAND  1900   82     180/  6/ 13 1014.9F
S GREEN BAY BUOY 1800   78 76  190/ 10/ 10   N/A
N MID LAKE BUOY  1850   72 71  210/ 12/ 14 1014.7F   1
NORTHPORT PIER   1900   83     190/  3/ 11 1014.9F
ALGOMA LAKESHORE 1813          220/ 11/ 13   N/A
KEWAUNEE LAKESHO 1900   66     170/  9/ 12 1015.8F
SHEBOYGAN LAKESH 1900   71     160/ 13/ 13 1017.1F
PORT WASHINGTON  1940   79     190/  5/  7 1017.6F
ATWATER BUOY     1900   68 54  230/  2/  2 1019.1F
MILWAUKEE LAKESH 1910   72      90/  4/  6   N/A
S MID LAKE BUOY  1850   76 77  190/  6/  6 1016.9F   0
KENOSHA   LAKESH 1900   75     160/  6/  7 1016.9F
$$

TC  - TEMPERATURE IN CELSIUS
VSB - VISIBILITY IN STATUTE MILES
WCI - WIND CHILL INDEX
HX  - HEAT INDEX




USA.gov is the U.S. government's official web portal to all federal, state and local government web resources and services.